DAL2832 KMKE-KMSP

Flight info

Callsign DAL2832
Flight time N/A
Altitude 26000
Route HAWKN ROBBY KBULL KKILR3
Aircraft B38M/M-VGDW/C

Departure

Time 2026-04-20 22:09
Airport General Mitchell International Airport (KMKE)

Arrival

Time N/A
Airport Minneapolis–Saint Paul International Airport / Wold–Chamberlain Field (KMSP)
Time Latitude Longitude Altitude Speed Heading
2026-04-20 21:46 42.94700 -87.89831 679 ft 0 kts 288°
2026-04-20 21:58 42.94695 -87.89809 707 ft 3 kts 267°
2026-04-20 21:58 42.94702 -87.89788 677 ft 3 kts 216°
2026-04-20 21:58 42.94712 -87.89768 677 ft 3 kts 280°
2026-04-20 21:59 42.94703 -87.89747 675 ft 3 kts 343°
2026-04-20 21:59 42.94699 -87.89745 676 ft 0 kts 359°
2026-04-20 22:05 42.94704 -87.89745 680 ft 4 kts 359°
2026-04-20 22:06 42.94746 -87.89713 679 ft 10 kts 52°
2026-04-20 22:06 42.94809 -87.89615 676 ft 17 kts 17°
2026-04-20 22:06 42.94938 -87.89593 675 ft 24 kts
2026-04-20 22:06 42.95106 -87.89564 675 ft 27 kts
2026-04-20 22:07 42.95307 -87.89530 677 ft 30 kts
2026-04-20 22:07 42.95518 -87.89493 680 ft 29 kts
2026-04-20 22:07 42.95650 -87.89473 681 ft 18 kts
2026-04-20 22:07 42.95738 -87.89425 680 ft 8 kts 64°
2026-04-20 22:08 42.95738 -87.89353 676 ft 9 kts 104°
2026-04-20 22:08 42.95682 -87.89315 678 ft 11 kts 186°
2026-04-20 22:08 42.95446 -87.89356 677 ft 66 kts 187°
2026-04-20 22:08 42.94782 -87.89467 678 ft 123 kts 186°
2026-04-20 22:09 42.93833 -87.89649 819 ft 148 kts 184°
2026-04-20 22:09 42.92759 -87.89871 1071 ft 159 kts 184°
2026-04-20 22:09 42.91634 -87.90137 1363 ft 171 kts 189°
2026-04-20 22:09 42.90398 -87.90446 1830 ft 187 kts 186°
2026-04-20 22:10 42.89133 -87.90681 2709 ft 185 kts 187°
2026-04-20 22:10 42.87830 -87.90963 3334 ft 194 kts 206°
2026-04-20 22:10 42.86915 -87.92308 3931 ft 207 kts 251°
2026-04-20 22:10 42.86991 -87.94327 4508 ft 231 kts 292°
2026-04-20 22:11 42.88124 -87.96013 5008 ft 259 kts 320°
2026-04-20 22:11 42.89791 -87.97059 5024 ft 267 kts 341°
2026-04-20 22:11 42.91615 -87.97622 5280 ft 270 kts 342°
2026-04-20 22:11 42.93401 -87.98369 6165 ft 265 kts 334°
2026-04-20 22:12 42.94994 -87.99486 7192 ft 257 kts 325°
2026-04-20 22:12 42.96501 -88.00794 8079 ft 256 kts 324°
2026-04-20 22:12 42.98031 -88.02057 8940 ft 257 kts 327°
2026-04-20 22:12 42.99596 -88.03267 9782 ft 259 kts 327°
2026-04-20 22:13 43.01179 -88.04492 10529 ft 264 kts 327°
2026-04-20 22:13 43.02803 -88.05776 11043 ft 275 kts 327°
2026-04-20 22:13 43.04504 -88.07124 11484 ft 290 kts 327°
2026-04-20 22:13 43.06286 -88.08528 12020 ft 299 kts 328°
2026-04-20 22:14 43.08103 -88.09953 12699 ft 303 kts 327°
2026-04-20 22:14 43.09938 -88.11402 13439 ft 306 kts 327°
2026-04-20 22:14 43.11762 -88.12848 14163 ft 308 kts 327°
2026-04-20 22:14 43.13628 -88.14325 14815 ft 311 kts 327°
2026-04-20 22:15 43.15511 -88.15813 15474 ft 313 kts 327°
2026-04-20 22:15 43.17405 -88.17312 16128 ft 315 kts 327°
2026-04-20 22:15 43.19317 -88.18828 16777 ft 318 kts 328°
2026-04-20 22:15 43.21248 -88.20359 17422 ft 321 kts 328°
2026-04-20 22:16 43.23170 -88.21884 18075 ft 323 kts 328°
2026-04-20 22:16 43.25124 -88.23436 18696 ft 326 kts 328°
2026-04-20 22:16 43.27089 -88.24998 19239 ft 328 kts 328°
2026-04-20 22:16 43.29056 -88.26609 19790 ft 329 kts 322°
2026-04-20 22:17 43.30685 -88.28813 20339 ft 331 kts 310°
2026-04-20 22:17 43.31980 -88.31448 20887 ft 334 kts 305°
2026-04-20 22:17 43.33236 -88.34160 21427 ft 336 kts 305°
2026-04-20 22:17 43.34494 -88.36839 21951 ft 338 kts 306°
2026-04-20 22:18 43.35787 -88.39561 22483 ft 339 kts 306°
2026-04-20 22:18 43.37069 -88.42277 23208 ft 336 kts 306°
2026-04-20 22:18 43.38314 -88.44930 23877 ft 333 kts 306°
2026-04-20 22:18 43.39567 -88.47599 24408 ft 331 kts 305°